Location: *
(42.1667°N, 0.1667°W)
Time: 05:21:39
(UTC+00:00)

Daily predictions for brighter satellites

Satellite Brightness Start Highest point End
(mag) Time Altitude Azimuth Time Altitude Azimuth Time Altitude Azimuth
CENTAUR R/B 4.0 01:59:00 29° E 01:59:00 29° E 02:03:17 10° NE
ADEOS II 4.1 01:53:50 10° NNE 01:56:26 24° ENE 01:56:26 24° ENE
Cosmos 2369 Rocket 3.8 02:07:32 30° ENE 02:07:32 30° ENE 02:10:57 10° NE
Lacrosse 5 4.3 02:08:52 16° N 02:09:23 16° N 02:12:34 10° NE
Resurs 1-4 Rocket 4.1 02:08:20 10° N 02:10:11 22° N 02:10:11 22° N
USA 238 DEB 4.2 02:21:37 54° N 02:21:37 54° N 02:27:02 10° NNE
USA 238 4.1 02:21:42 55° N 02:21:42 55° N 02:27:09 10° NNE
Atlas Centaur 2 4.5 02:29:28 17° SE 02:29:28 17° SE 02:31:33 10° ESE
ARIANE 5 R/B 3.7 02:33:48 10° NNE 02:36:58 38° NNE 02:36:58 38° NNE
Cosmos 1943 Rocket 2.7 02:49:36 53° NNE 02:49:36 53° NNE 02:53:49 10° NNE
Nadezhda 4 Rocket 3.9 02:52:13 78° ENE 02:52:13 78° ENE 02:58:09 10° N
CZ-2D R/B 4.0 02:48:03 10° N 02:49:53 19° NNW 02:49:53 19° NNW
NOSS 3-3 (A) 4.4 02:46:43 10° NW 02:54:20 75° WSW 03:02:38 10° SSE
NOSS 3-3 (C) 4.4 02:46:49 10° NW 02:54:26 75° WSW 03:02:44 10° SSE
Cosmos 2344 3.4 02:54:20 68° W 02:54:56 71° NW 03:03:05 10° NNE
NOSS 3-2 (A) 4.0 03:04:27 43° NW 03:04:27 43° NW 03:10:23 10° NNE
ATLAS 3B R/B 2.4 03:06:39 77° WSW 03:07:04 82° NW 03:13:43 10° NE
NOSS 3-2 (C) 3.5 03:08:07 59° NW 03:08:07 59° NW 03:14:27 10° NNE
Lacrosse 5 rocket 3.5 03:11:37 20° SE 03:11:37 20° SE 03:13:04 10° SE
Cosmos 1400 Rocket 4.2 03:11:55 37° NE 03:11:55 37° NE 03:14:41 10° NNE
Cosmos 2263 4.0 03:17:42 79° WNW 03:17:42 79° WNW 03:23:19 10° NNE
IDEFIX/ARIANE 42P 3.7 03:18:40 10° NNE 03:23:41 42° E 03:27:33 16° SSE
H-2A R/B 4.2 03:23:14 10° NE 03:26:31 26° E 03:28:28 18° SE
Iridium 4 Rocket 3.5 03:26:12 51° SE 03:27:00 62° E 03:31:13 10° N
Unknown 4.4 03:30:23 43° N 03:30:23 43° N 03:33:46 10° NE
Cosmos 2026 Rocket 4.2 03:26:46 22° S 03:30:56 72° E 03:37:16 10° NNE
Unknown 4.4 03:31:59 43° N 03:31:59 43° N 03:35:26 10° NE
Unknown 4.4 03:33:35 43° N 03:33:35 43° N 03:37:06 10° NE
Unknown 4.4 03:35:10 43° N 03:35:10 43° N 03:38:45 10° NE
CZ-2C R/B 4.1 03:33:04 10° N 03:35:23 31° NNW 03:35:23 31° NNW
Timation 2 Rocket 4.3 03:31:29 10° NNW 03:37:29 61° ENE 03:43:22 10° SE
Unknown 4.4 03:38:23 41° NNW 03:38:23 41° NNW 03:42:03 10° NE
ADEOS II 3.0 03:33:29 10° N 03:37:22 32° NW 03:37:22 32° NW
Unknown 4.5 03:41:58 39° NNW 03:41:58 39° NNW 03:45:47 10° NE
Cosmos 1656 Rocket 3.6 03:41:58 48° SW 03:43:38 81° WNW 03:49:19 10° NNE
Unknown 4.4 03:44:46 38° NNW 03:44:47 38° NNW 03:48:41 10° NE
CENTAUR R/B 2.9 03:46:12 40° W 03:47:49 49° NW 03:54:38 10° NNE
Unknown 4.5 03:47:57 37° NNW 03:48:08 37° NNW 03:52:00 10° NE
Cosmos 2369 Rocket 3.0 03:49:20 33° WNW 03:49:47 33° WNW 03:54:54 10° N
Unknown 4.5 03:49:33 36° NW 03:49:48 36° NNW 03:53:39 10° NE
Cosmos 2195 Rocket 4.4 03:47:19 30° SSW 03:50:36 71° W 03:56:53 10° N
CZ-2C R/B 4.2 03:47:25 10° NNE 03:51:50 32° E 03:56:19 10° SSE
Lacrosse 5 3.2 03:48:55 10° NW 03:53:38 38° NNE 03:58:20 10° ESE
Cosmos 44 3.6 03:55:43 44° W 03:56:35 49° NW 04:01:15 10° NNE
PSLV R/B 3.8 03:53:03 10° SSE 03:57:12 89° NE 04:01:20 10° NNW
Cosmos 1833 4.1 03:54:35 10° NNW 04:00:06 60° WSW 04:05:36 10° S
Cosmos 1500 3.3 03:57:39 10° N 04:01:25 72° E 04:05:09 10° SSE
PSLV R/B 3.4 04:00:28 10° N 04:04:51 75° WNW 04:07:00 29° SSW
Meteor 2-6 Rocket 4.4 04:02:22 31° SW 04:05:00 53° WNW 04:10:50 10° N
Cosmos 1428 Rocket 4.4 03:59:48 14° SSW 04:05:22 74° W 04:11:41 10° N
Cosmos 1733 Rocket 3.1 04:02:21 10° NNW 04:06:43 56° W 04:10:07 16° SSW
SeaSat 1 2.4 04:05:48 10° NNE 04:10:45 88° WNW 04:14:09 21° SSW
Atlas Centaur 2 3.8 04:12:06 21° SW 04:14:20 25° S 04:20:21 10° SE
Meteor 1-27 Rocket 3.7 04:09:32 10° SSW 04:15:25 79° W 04:21:15 10° N
ARIANE 5 R/B 4.3 04:14:36 10° NNW 04:17:18 15° WNW 04:17:18 15° WNW
SL-4 R/B 1.5 04:17:01 35° WNW 04:18:20 74° SW 04:21:58 10° SE
ADEOS 3.7 04:16:41 10° N 04:21:45 51° WNW 04:25:28 18° SW
COSMOS 2441 4.4 04:18:59 10° NNE 04:23:54 89° ESE 04:28:48 10° SSW
Cosmos 1812 2.9 04:23:31 26° SW 04:25:21 47° W 04:29:06 10° N
CZ-4B R/B 4.5 04:22:39 10° NNE 04:26:14 51° E 04:29:47 10° S
ATLAS CENTAUR R/B 4.4 04:25:05 10° N 04:27:21 14° NE 04:29:32 10° ENE
PAYLOAD A 3.8 04:24:36 10° NNE 04:29:23 90° ESE 04:34:04 10° SSW
Cosmos 1315 Rocket 3.0 04:27:31 17° SSW 04:30:28 51° WNW 04:34:31 10° N
Meteor 1-11 Rocket 3.8 04:26:36 10° NNW 04:32:01 52° W 04:37:21 10° S
Cosmos 1943 Rocket 3.9 04:31:09 13° WNW 04:32:51 15° NW 04:35:59 10° NNW
BREEZE-M DEB (TANK) 3.5 04:29:35 15° W 04:37:36 58° N 04:40:57 10° ENE
Cosmos 2266 Rocket 4.1 04:32:01 10° S 04:38:06 77° E 04:44:09 10° N
Shenzhou-11 Module 4.3 04:37:56 10° S 04:39:44 16° SSE 04:41:30 10° ESE
Cosmos 1782 Rocket 3.8 04:36:17 10° N 04:40:40 73° E 04:45:03 10° SSE
USA 215 3.3 04:35:14 10° NE 04:41:49 82° SE 04:48:22 10° SW
SJ-6F 4.5 04:41:36 10° N 04:45:46 63° WNW 04:49:53 10° SSW
Lacrosse 5 rocket 3.1 04:47:25 15° WSW 04:47:25 15° WSW 04:49:55 10° SSW
Cosmos 1703 Rocket 3.6 04:47:45 10° SSW 04:52:06 57° W 04:56:28 10° N
Aureole 2 Rocket 3.5 04:52:24 16° WNW 04:52:48 16° WNW 04:54:36 10° NNW
Meteor PRIRODA 3.8 04:49:25 10° NNE 04:53:07 77° ESE 04:56:49 10° S
Cosmos 2292 Rocket 4.5 04:48:12 10° S 04:53:28 57° E 04:57:27 10° NNE
Cosmos 1666 2.6 04:52:26 10° NNW 04:56:10 62° W 04:59:53 10° S
PSLV R/B 4.1 04:52:17 10° NNE 04:56:19 75° ESE 05:00:13 10° S
Sich 1 Rocket 3.6 04:52:16 10° N 04:56:45 88° E 05:01:15 10° S
Meteor 1-31 Rocket 2.8 04:54:13 10° N 04:58:05 59° WNW 05:01:53 10° SSW
BREEZE-M DEB (TANK) 3.7 04:55:03 12° W 04:58:31 29° NNW 05:00:45 10° NE
ATLAS 3B R/B 4.0 04:53:56 11° W 04:58:45 22° NNW 05:03:46 10° NNE
Okean 1 3.5 04:56:08 10° S 05:00:05 75° E 05:04:03 10° NNE
Cosmos 1340 3.6 04:56:56 10° NW 05:00:10 27° W 05:03:22 10° SSW
Cosmos 2221 Rocket 4.1 04:55:49 10° S 05:00:10 64° E 05:04:33 10° NNE
H-2A R/B 3.6 04:58:55 10° NNW 05:01:53 22° WNW 05:04:51 10° WSW
IDEFIX/ARIANE 42P 3.6 04:58:44 10° N 05:03:01 26° WNW 05:07:18 10° WSW
Cosmos 1553 Rocket 4.5 04:57:57 10° NNW 05:03:35 37° W 05:09:06 10° SSW
OAO 2 Rocket 4.4 05:01:04 10° SW 05:05:28 33° S 05:09:52 10° ESE
Cosmos 1975 3.8 05:02:27 10° N 05:06:27 52° E 05:10:26 10° SSE
Helios 1A Rocket 3.7 05:03:43 10° NNE 05:07:45 57° ESE 05:11:46 10° S
Cosmos 2084 Rocket 4.3 05:04:35 10° WNW 05:08:25 30° WSW 05:12:11 10° S
CZ-4B R/B 4.4 05:05:56 10° NNE 05:11:16 48° E 05:16:28 10° S
Meteor 1-18 Rocket 4.3 05:06:32 10° S 05:12:07 88° ESE 05:17:51 10° N
Cosmos 2315 Rocket 4.0 05:06:01 10° N 05:12:15 88° W 05:18:29 10° S
BREEZE-M DEB (TANK) 4.1 05:04:24 10° SW 05:13:14 42° SSE 05:16:22 10° ENE
Cosmos 1536 4.1 05:10:38 10° NW 05:13:37 21° W 05:16:35 10° SW
Cosmos 1346 Rocket 4.2 05:11:10 10° NW 05:14:09 20° W 05:17:06 10° SW
USA 267 4.0 05:09:06 10° ESE 05:15:26 55° NNE 05:21:48 10° NW
SJ-12 4.4 05:11:39 10° NNE 05:15:42 67° ESE 05:19:43 10° S
Okean 1-7 3.6 05:13:00 10° SW 05:17:04 37° WNW 05:21:10 10° N
Cosmos 44 Rocket 4.0 05:13:19 10° WSW 05:18:01 38° NW 05:22:36 10° NNE
BREEZE-M DEB (TANK) 2.7 05:15:32 10° WNW 05:21:27 84° SSW 05:24:01 10° SE
